Terminal Aerodrome Forecast
Issued by NWS Twin Cities, MN

Home | Current Version | Previous Version | Text Only | Print | Product List | Glossary Off
Versions: 1 2 3 4 5 6 7 8 9 10 11 12 13 14 15 16 17 18 19

000
FTUS43 KMPX 311507 AAA
TAFEAU
TAF AMD
KEAU 311507Z 3115/0112 13008KT P6SM OVC100
     FM312000 19008KT P6SM VCTS BKN050CB
      TEMPO 3121/3124 3SM TSRA BR OVC035CB
     FM010100 19005KT P6SM SCT050 BKN100=

USA.gov is the U.S. government's official web portal to all federal, state and local government web resources and services.